FW2444 Weather Reports


Display with metric or nautical units.
time (UTC)temp
F
wind
direction
speed
MPH
gust
MPH
rain 1hr
in
rain 24hr
in
rain mn
in
humidity
%
barometer
mb
20260902123057 58 250 0.0 0.0 0.00 0.00 0.00 56 1016.7
20260902121554 59 250 0.0 0.0 0.00 0.00 0.00 57 1016.7
20260902120052 59 250 0.0 0.0 0.00 0.00 0.00 56 1016.7
20260902114610 60 250 0.0 0.0 0.00 0.00 0.00 56 1016.7
20260902113051 59 250 0.0 0.0 0.00 0.00 0.00 55 1016.7
20260902111549 59 250 0.0 0.0 0.00 0.00 0.00 55 1016.8
20260902110059 60 250 0.0 0.0 0.00 0.00 0.00 56 1016.8
20260902104547 60 250 0.0 0.0 0.00 0.00 0.00 56 1016.7
20260902103058 60 250 0.0 0.0 0.00 0.00 0.00 57 1016.9
20260902101549 60 250 0.0 0.0 0.00 0.00 0.00 57 1017.0
20260902100045 60 250 0.0 0.0 0.00 0.00 0.00 57 1017.0
20260902094542 60 250 0.0 0.0 0.00 0.00 0.00 57 1017.1
20260902093042 60 250 0.0 0.0 0.00 0.00 0.00 57 1017.0
20260902091539 60 250 0.0 0.0 0.00 0.00 0.00 58 1017.0
20260902090037 61 250 0.0 0.0 0.00 0.00 0.00 57 1016.9
20260902084535 61 250 0.0 0.0 0.00 0.00 0.00 57 1017.1
20260902083038 61 250 0.0 0.0 0.00 0.00 0.00 57 1017.2
20260902081541 61 250 0.0 0.0 0.00 0.00 0.00 57 1017.3
20260902080045 61 250 0.0 0.0 0.00 0.00 0.00 57 1017.3
20260902074529 62 250 0.0 0.0 0.00 0.00 0.00 57 1017.2
20260902073031 62 250 0.0 0.0 0.00 0.00 0.00 57 1016.9
20260902071524 62 250 0.0 0.0 0.00 0.00 0.00 56 1016.7
20260902070021 63 250 0.0 0.0 0.00 0.00 0.00 56 1016.6
20260902064521 63 250 0.0 0.0 0.00 0.00 0.00 56 1016.6
20260902063021 64 250 0.0 0.0 0.00 0.00 0.00 55 1016.7
20260902061520 64 250 0.0 0.0 0.00 0.00 0.00 55 1016.7
20260902060019 64 250 0.0 0.0 0.00 0.00 0.00 52 1016.6
20260902054529 64 250 0.0 0.0 0.00 0.00 0.00 50 1016.5
20260902053019 65 250 0.0 0.0 0.00 0.00 0.00 49 1016.5
20260902051523 66 250 0.0 0.0 0.00 0.00 0.00 48 1016.5
20260902050018 66 250 0.0 0.0 0.00 0.00 0.00 47 1016.4
20260902044517 67 250 0.0 0.0 0.00 0.00 0.00 45 1016.4
20260902043017 67 250 0.0 0.0 0.00 0.00 0.00 44 1016.1
20260902041518 68 250 0.0 0.0 0.00 0.00 0.00 43 1016.1
20260902040018 68 250 0.0 0.0 0.00 0.00 0.00 41 1015.7
20260902034516 69 250 0.0 0.0 0.00 0.00 0.00 40 1015.5
20260902033015 70 250 0.0 0.0 0.00 0.00 0.00 40 1015.2
20260902031514 70 250 0.0 0.0 0.00 0.00 0.00 38 1015.2
20260902030017 71 250 0.0 0.0 0.00 0.00 0.00 36 1015.0
20260902024514 72 250 0.0 0.0 0.00 0.00 0.00 35 1014.9
20260902023032 73 250 0.0 0.0 0.00 0.00 0.00 34 1014.8
20260902021525 75 250 0.0 0.0 0.00 0.00 0.00 33 1014.8
20260902020010 76 250 0.0 0.0 0.00 0.00 0.00 29 1014.8
20260902014510 77 250 0.0 0.0 0.00 0.00 0.00 27 1014.9
20260902013010 78 250 0.0 0.0 0.00 0.00 0.00 27 1014.9
20260902011512 79 250 0.0 0.0 0.00 0.00 0.00 22 1014.9
20260902010008 79 250 0.0 0.0 0.00 0.00 0.00 24 1015.0
20260902004508 80 250 0.0 0.0 0.00 0.00 0.00 24 1015.0
20260902003007 81 250 0.0 0.0 0.00 0.00 0.00 27 1015.1
20260902001506 81 250 0.0 0.0 0.00 0.00 0.00 24 1015.2
20260902000008 83 250 0.0 0.0 0.00 0.00 0.00 26 1015.2
20260901234505 83 250 0.0 0.0 0.00 0.00 0.00 24 1015.2
20260901233005 84 250 0.0 0.0 0.00 0.00 0.00 22 1015.2
20260901231505 86 250 0.0 0.0 0.00 0.00 0.00 24 1015.2
20260901230003 86 250 0.0 0.0 0.00 0.00 0.00 24 1015.3
20260901224504 86 250 0.0 0.0 0.00 0.00 0.00 25 1015.4
20260901223004 86 250 0.0 0.0 0.00 0.00 0.00 26 1015.3
20260901221615 88 250 0.0 0.0 0.00 0.00 0.00 24 1015.4
20260901220130 89 250 0.0 0.0 0.00 0.00 0.00 19 1015.4
20260901214559 89 250 0.0 0.0 0.00 0.00 0.00 16 1015.5
20260901213116 89 250 0.0 0.0 0.00 0.00 0.00 13 1015.6
20260901211600 90 250 0.0 0.0 0.00 0.00 0.00 11 1015.8
20260901210101 88 250 0.0 0.0 0.00 0.00 0.00 14 1016.0
20260901204549 87 250 0.0 0.0 0.00 0.00 0.00 17 1016.1
20260901203100 87 250 0.0 0.0 0.00 0.00 0.00 19 1016.0
20260901201545 86 251 0.0 0.0 0.00 0.00 0.00 19 1016.4
20260901200045 86 251 0.0 0.0 0.00 0.00 0.00 20 1016.7
20260901194543 84 251 0.0 0.0 0.00 0.00 0.00 20 1016.9
20260901193049 85 250 0.0 0.0 0.00 0.00 0.00 20 1016.9
20260901191635 83 250 0.0 0.0 0.00 0.00 0.00 25 1017.1
20260901190031 82 250 0.0 0.0 0.00 0.00 0.00 28 1017.0
20260901184532 83 250 0.0 0.0 0.00 0.00 0.00 31 1017.0
20260901183037 81 250 0.0 0.0 0.00 0.00 0.00 35 1017.1
20260901181523 78 250 0.0 0.0 0.00 0.00 0.00 39 1017.3
20260901180019 76 250 0.0 0.0 0.00 0.00 0.00 43 1017.1
20260901174518 77 250 0.0 0.0 0.00 0.00 0.00 42 1017.2
20260901173016 75 250 0.0 0.0 0.00 0.00 0.00 43 1016.9
20260901171511 73 250 0.0 0.0 0.00 0.00 0.00 46 1016.9
20260901170008 72 250 0.0 0.0 0.00 0.00 0.00 48 1016.9
20260901164506 71 250 0.0 0.0 0.00 0.00 0.00 49 1016.9
20260901163005 70 250 0.0 0.0 0.00 0.00 0.00 50 1016.9
20260901161559 68 250 0.0 0.0 0.00 0.00 0.00 50 1016.9
20260901160101 67 250 0.0 0.0 0.00 0.00 0.00 50 1016.9
20260901154552 66 250 0.0 0.0 0.00 0.00 0.00 50 1016.7
20260901153049 65 250 0.0 0.0 0.00 0.00 0.00 52 1016.6
20260901151548 64 250 0.0 0.0 0.00 0.00 0.00 54 1016.5
20260901150047 63 250 0.0 0.0 0.00 0.00 0.00 55 1016.3
20260901144547 63 250 0.0 0.0 0.00 0.00 0.00 57 1016.3
20260901143048 62 250 0.0 0.0 0.00 0.00 0.00 58 1016.2
20260901141546 61 250 0.0 0.0 0.00 0.00 0.00 58 1016.1
20260901140052 60 250 0.0 0.0 0.00 0.00 0.00 58 1015.9
20260901134555 60 250 0.0 0.0 0.00 0.00 0.00 58 1015.6
20260901133046 60 250 0.0 0.0 0.00 0.00 0.00 58 1015.5
20260901131543 60 250 0.0 0.0 0.00 0.00 0.00 58 1015.4
20260901130043 60 250 0.0 0.0 0.00 0.00 0.00 58 1015.2
20260901124539 60 250 0.0 0.0 0.00 0.00 0.00 57 1015.2